[[{"header":{"parameterUnit":"m.s-1","parameterCategory":2,"la1":30.2992,"la2":30.254,"lo1":-89.0895,"lo2":-89.0443,"dy":0.0025,"dx":0.0025,"nx":19,"ny":19,"refTime":"2026-04-08T09:00:00:Z","depth":"0","parameterNumber":2,"parameterNumberName":"U-component_of_CURRENTS"},"data":[0,0,0,0.3673,0.3671,0.3548,0.3548,0.3441,0.3441,0,0,0,0,0,0,0,0,0,0,0,0.3683,0.3682,0.3673,0.3671,0.3548,0.3548,0.3441,0.3441,0,0,0,0,0,0,0,0,0,0,0,0.3684,0.3682,0.3681,0.367,0.3549,0.3547,0.3442,0.3515,0,0,0,0,0,0,0,0,0,0,0.3625,0.362,0.3683,0.3681,0.367,0.3549,0.3547,0.3518,0.3511,0.3519,0,0.3488,0,0.3489,0.3437,0.3437,0,0,0,0.3645,0.3626,0.362,0.3681,0.3669,0.3549,0.3596,0.3513,0.3505,0.351,0.3487,0.3483,0.3487,0.3437,0.3437,0.3417,0.3418,0,0,0.3652,0.3638,0.3625,0.3615,0.3623,0.36,0.3593,0.3508,0.3479,0.3486,0.3481,0.3485,0.3437,0.3436,0.3417,0.3417,0,0,0,0.3688,0.3642,0.3636,0.3618,0.3607,0.3598,0.3589,0.3481,0.3486,0.348,0.3484,0.3436,0.3436,0.3417,0.3417,0.3454,0,0,0,0.3691,0.3667,0.3639,0.3626,0.3608,0.3534,0.3564,0.349,0.3482,0.3484,0.3436,0.3435,0.3417,0.3417,0.3453,0.3496,0,0,0,0.3691,0.3667,0.3654,0.3627,0.3592,0.3535,0.3532,0.3487,0.3487,0.3437,0.3435,0.3417,0.3417,0.3451,0.3492,0.3564,0,0,0,0.3682,0.3566,0.3652,0.3535,0.3593,0.3525,0.3532,0.3459,0.341,0.3436,0.3417,0.3417,0.3451,0.349,0.3561,0.3578,0.3592,0,0,0.352,0.3546,0.3482,0.3557,0.3494,0.3541,0.3494,0.3436,0.3431,0.3444,0.3442,0.3453,0.3492,0.3563,0.3604,0.3618,0,0,0,0.3422,0.3404,0.3385,0.3386,0.3382,0.3445,0.3418,0.3444,0.345,0.3412,0.3452,0.3476,0.352,0.3524,0.3534,0.3536,0.3419,0.3419,0.3419,0.3229,0.3279,0.3219,0.3296,0.3297,0.3377,0.3416,0.3467,0.3437,0.3467,0.3504,0.3583,0.3585,0.3594,0.3595,0.3487,0.3488,0.3488,0.3488,0.3085,0.3078,0.3188,0.3157,0.3286,0.3303,0.3453,0.3488,0.3592,0.355,0.359,0.3559,0.3608,0.3604,0.349,0.349,0.3489,0.3489,0.3489,0.3016,0.3019,0.3037,0.3092,0.3179,0.3302,0.3439,0.3557,0.3636,0.3689,0.3708,0.3707,0.371,0.3707,0.3707,0.3708,0.3708,0.3709,0.3709,0.293,0.2955,0.2957,0.3035,0.3076,0.3221,0.3442,0.355,0.3721,0.3777,0.3777,0.3739,0.3651,0.365,0.3717,0.3715,0.3714,0.3713,0.3713,0.2829,0.2862,0.2863,0.2889,0.2996,0.3071,0.3323,0.3587,0.3734,0.3828,0.3883,0.3829,0.3833,0.3823,0.3826,0.3935,0.3935,0.3935,0.3935,0.2763,0.2782,0.2765,0.2782,0.2857,0.2996,0.3124,0.3402,0.3758,0.3895,0.3975,0.3906,0.3897,0.39,0.3889,0.389,0.4014,0.4014,0.4014,0.2703,0.2722,0.2669,0.2699,0.276,0.2873,0.2944,0.317,0.3712,0.4016,0.3981,0.3977,0.387,0.3856,0.3849,0.3833,0.3831,0,0]},{"header":{"parameterUnit":"m.s-1","parameterCategory":2,"la1":30.2992,"la2":30.254,"lo1":-89.0895,"lo2":-89.0443,"dy":0.0025,"dx":0.0025,"nx":19,"ny":19,"refTime":"2026-04-08T09:00:00:Z","depth":"0","parameterNumber":3,"parameterNumberName":"V-component_of_CURRENTS"},"data":[0,0,0,0.0039,0.0039,0.0011,0.001,-0.0074,-0.0075,0,0,0,0,0,0,0,0,0,0,0,0.0059,0.006,0.0039,0.0039,0.0011,0.001,-0.0074,-0.0075,0,0,0,0,0,0,0,0,0,0,0,0.0059,0.006,0.006,0.0039,0.0011,0.001,-0.0074,-0.0045,0,0,0,0,0,0,0,0,0,0,-0.0013,0.0031,0.0059,0.006,0.0039,0.0011,0.001,-0.0044,-0.0047,-0.0068,0,-0.0048,0,-0.0059,-0.008,-0.008,0,0,0,0.0019,0.0034,0.0017,0.006,0.0039,0.0011,0.0018,-0.0045,-0.0049,-0.0073,-0.0049,-0.0052,-0.0061,-0.008,-0.008,-0.0071,-0.0071,0,0,0.0021,0.0054,0.0021,0.0016,0.0063,0.0019,0.0017,-0.0047,-0.0034,-0.005,-0.0054,-0.0062,-0.0081,-0.0081,-0.0072,-0.0071,0,0,0,0.0039,0.0056,0.0041,0.0019,0.002,0.0019,0.0017,-0.0031,-0.0037,-0.0055,-0.0063,-0.0081,-0.0082,-0.0072,-0.0072,0.006,0,0,0,0.0039,0.0067,0.0042,0.0061,0.0023,0.0004,0.0035,-0.0033,-0.004,-0.0063,-0.0081,-0.0083,-0.0073,-0.0072,0.0055,0.013,0,0,0,0.0055,0.0068,0.0073,0.0063,0.0058,0.0005,-0.0006,-0.0035,-0.0045,-0.008,-0.0083,-0.0074,-0.0072,0.005,0.0122,0.0178,0,0,0,0.0076,0.0129,0.0075,0.0133,0.0059,0.0076,-0.0005,-0.0009,-0.0029,-0.0081,-0.0073,-0.0072,0.0049,0.0116,0.0173,0.03,0.0334,0,0,0.0155,0.014,0.0172,0.0123,0.0175,0.0076,0.0126,0.0056,-0.0016,-0.0061,-0.0061,0.0057,0.0121,0.0177,0.0388,0.042,0,0,0,0.0204,0.0228,0.0236,0.0252,0.0233,0.0228,0.0148,0.0112,0.0071,-0.0018,0.0051,0.0087,0.0119,0.0184,0.0209,0.011,-0.0065,-0.0065,-0.0065,0.033,0.0314,0.0378,0.0361,0.0364,0.0325,0.0317,0.0249,0.0161,0.0162,0.019,0.0319,0.039,0.0411,0.0307,0.0173,0.0174,0.0174,0.0175,0.0445,0.0481,0.0468,0.0514,0.0496,0.0516,0.0468,0.0416,0.0398,0.0301,0.0324,0.0314,0.0447,0.0325,0.0183,0.0182,0.018,0.018,0.0179,0.051,0.0532,0.0547,0.0611,0.0667,0.0647,0.0728,0.0655,0.0536,0.0561,0.0593,0.0591,0.0487,0.0562,0.0563,0.0563,0.0564,0.0564,0.0565,0.057,0.0594,0.0662,0.0724,0.0785,0.0876,0.0883,0.0888,0.0847,0.0762,0.0762,0.0536,0.0436,0.0424,0.0574,0.0573,0.0571,0.057,0.057,0.0654,0.066,0.0777,0.0845,0.1011,0.119,0.1177,0.1234,0.1174,0.1187,0.0863,0.0852,0.082,0.0799,0.0794,0.1031,0.1031,0.1031,0.1031,0.0711,0.0722,0.0888,0.1027,0.1205,0.1337,0.1575,0.1596,0.1336,0.1173,0.0993,0.0919,0.0904,0.0868,0.0846,0.0837,0.108,0.1079,0.1079,0.0776,0.0822,0.0952,0.1086,0.1292,0.1519,0.179,0.1933,0.1482,0.1062,0.0832,0.083,0.0691,0.0676,0.0588,0.0564,0.0538,0,0]}],[{"header":{"parameterUnit":"m.s-1","parameterCategory":2,"la1":30.2992,"la2":30.254,"lo1":-89.0895,"lo2":-89.0443,"dy":0.0025,"dx":0.0025,"nx":19,"ny":19,"refTime":"2026-04-08T09:00:00:Z","depth":"2","parameterNumber":2,"parameterNumberName":"U-component_of_CURRENTS"},"data":[0,0,0,0.2896,0.2899,0.2987,0.2987,0.3023,0.3023,0,0,0,0,0,0,0,0,0,0,0,0.2861,0.2862,0.2896,0.2899,0.2987,0.2987,0.3023,0.3023,0,0,0,0,0,0,0,0,0,0,0,0.2861,0.2862,0.2863,0.29,0.2987,0.2987,0.3022,0.2971,0,0,0,0,0,0,0,0,0,0,0.2893,0.2869,0.2862,0.2863,0.29,0.2987,0.2987,0.2969,0.2974,0.2966,0,0.2995,0,0.3019,0.3025,0.3025,0,0,0,0.2881,0.2865,0.2903,0.2863,0.2901,0.2987,0.2942,0.2972,0.2978,0.2972,0.2996,0.2998,0.302,0.3025,0.3026,0.3074,0.3075,0,0,0.2876,0.2859,0.29,0.2907,0.2943,0.294,0.2945,0.2976,0.298,0.2996,0.2999,0.302,0.3026,0.3026,0.3074,0.3074,0,0,0,0.2874,0.2856,0.2893,0.2905,0.2933,0.2943,0.2949,0.2978,0.2996,0.3,0.3021,0.3026,0.3026,0.3074,0.3074,0.3112,0,0,0,0.287,0.2857,0.2891,0.2879,0.2933,0.2966,0.295,0.2993,0.2998,0.3021,0.3026,0.3027,0.3073,0.3074,0.311,0.315,0,0,0,0.2854,0.2854,0.2874,0.2879,0.2928,0.2967,0.2985,0.2995,0.3011,0.3025,0.3027,0.3073,0.3074,0.3108,0.3147,0.3209,0,0,0,0.2819,0.2825,0.2873,0.2882,0.2927,0.2967,0.2985,0.3004,0.3014,0.3026,0.3073,0.3074,0.3108,0.3145,0.3206,0.3158,0.3167,0,0,0.2797,0.2821,0.2824,0.287,0.2907,0.2953,0.2992,0.3013,0.3023,0.3054,0.3056,0.3111,0.3147,0.3208,0.3197,0.3204,0,0,0,0.2796,0.2812,0.2826,0.2869,0.2911,0.2981,0.3009,0.3041,0.3087,0.304,0.3114,0.3136,0.3173,0.3138,0.3144,0.3077,0.3077,0.3077,0.3077,0.2749,0.2785,0.2799,0.2861,0.2905,0.2996,0.3053,0.3107,0.3096,0.3131,0.3167,0.3244,0.3205,0.321,0.3156,0.3156,0.3156,0.3156,0.3156,0.2714,0.2717,0.2794,0.2819,0.2917,0.2971,0.3112,0.3148,0.3251,0.3216,0.325,0.3181,0.3219,0.316,0.3159,0.3159,0.3158,0.3158,0.3158,0.2662,0.2669,0.2699,0.2768,0.286,0.2979,0.3107,0.3221,0.3296,0.3345,0.3318,0.3316,0.3289,0.3361,0.3362,0.3362,0.3363,0.3363,0.3363,0.2583,0.2618,0.2633,0.2723,0.2769,0.2908,0.3117,0.3213,0.3344,0.3379,0.3378,0.3315,0.3308,0.3302,0.337,0.3369,0.3368,0.3368,0.3367,0.2506,0.2533,0.2552,0.2586,0.2696,0.2753,0.2988,0.3187,0.332,0.3375,0.34,0.3397,0.3391,0.3384,0.3381,0.3466,0.3466,0.3466,0.3466,0.2446,0.2466,0.2463,0.2487,0.2557,0.2675,0.2736,0.2905,0.3154,0.3225,0.3235,0.3138,0.3141,0.3115,0.3114,0.3102,0.3115,0.3114,0.3113,0.2395,0.2412,0.2373,0.2408,0.2464,0.2541,0.2524,0.2527,0.2767,0.3091,0.3095,0.3457,0.3339,0.3334,0.3311,0.3303,0.329,0,0]},{"header":{"parameterUnit":"m.s-1","parameterCategory":2,"la1":30.2992,"la2":30.254,"lo1":-89.0895,"lo2":-89.0443,"dy":0.0025,"dx":0.0025,"nx":19,"ny":19,"refTime":"2026-04-08T09:00:00:Z","depth":"2","parameterNumber":3,"parameterNumberName":"V-component_of_CURRENTS"},"data":[0,0,0,0.027,0.0269,0.0184,0.0183,0.0069,0.0068,0,0,0,0,0,0,0,0,0,0,0,0.0301,0.0301,0.027,0.0268,0.0184,0.0183,0.0069,0.0068,0,0,0,0,0,0,0,0,0,0,0,0.0301,0.0301,0.03,0.0268,0.0184,0.0183,0.0069,0.0132,0,0,0,0,0,0,0,0,0,0,0.0214,0.0254,0.0301,0.03,0.0268,0.0184,0.0183,0.0135,0.0128,0.011,0,0.0104,0,0.0087,0.0062,0.0061,0,0,0,0.0257,0.026,0.0232,0.03,0.0267,0.0184,0.0219,0.0131,0.0123,0.0101,0.0102,0.0098,0.0085,0.0061,0.006,0.0036,0.0036,0,0,0.0262,0.0286,0.0238,0.0228,0.0254,0.0221,0.0216,0.0126,0.0125,0.0102,0.0095,0.0083,0.006,0.0059,0.0035,0.0036,0,0,0,0.0283,0.029,0.0264,0.0233,0.022,0.0219,0.0213,0.0129,0.012,0.0094,0.0082,0.006,0.0058,0.0035,0.0035,0.015,0,0,0,0.0285,0.0302,0.0267,0.028,0.0222,0.0176,0.0218,0.0126,0.0115,0.0083,0.006,0.0057,0.0034,0.0035,0.0146,0.0215,0,0,0,0.0303,0.0304,0.0297,0.0282,0.0249,0.0177,0.0162,0.0123,0.0108,0.0061,0.0057,0.0034,0.0035,0.0142,0.0208,0.0248,0,0,0,0.0327,0.0334,0.0297,0.0306,0.025,0.0233,0.0162,0.0134,0.0101,0.0059,0.0034,0.0035,0.0141,0.0203,0.0243,0.0323,0.0349,0,0,0.0351,0.0337,0.0344,0.031,0.0326,0.0243,0.026,0.0181,0.0112,0.006,0.0059,0.0147,0.0207,0.0247,0.0389,0.0413,0,0,0,0.0362,0.0373,0.037,0.037,0.0339,0.0335,0.0252,0.0217,0.0169,0.0098,0.0138,0.0172,0.0194,0.0232,0.0252,0.0041,0.004,0.004,0.004,0.0427,0.0419,0.0452,0.0444,0.0432,0.0393,0.038,0.0318,0.0235,0.0233,0.0259,0.0361,0.0403,0.0419,0.0238,0.0239,0.0239,0.024,0.024,0.0497,0.0526,0.0526,0.0551,0.0544,0.0549,0.0502,0.0456,0.0432,0.0351,0.0365,0.0343,0.0448,0.0249,0.0247,0.0246,0.0245,0.0244,0.0244,0.055,0.057,0.0582,0.0638,0.0686,0.0666,0.0735,0.0668,0.0553,0.0571,0.0573,0.0571,0.0435,0.0567,0.0568,0.0568,0.0569,0.0569,0.0569,0.0602,0.0622,0.0683,0.0737,0.0795,0.0875,0.0877,0.0871,0.0808,0.0719,0.0718,0.0471,0.046,0.0452,0.0577,0.0576,0.0575,0.0574,0.0574,0.0671,0.068,0.0783,0.0847,0.1,0.1148,0.1131,0.1139,0.1078,0.1061,0.0784,0.0776,0.0745,0.0728,0.0726,0.0914,0.0914,0.0914,0.0914,0.0721,0.0731,0.0883,0.1012,0.1173,0.1278,0.1436,0.1382,0.1192,0.1042,0.1036,0.0983,0.0967,0.0942,0.092,0.0918,0.1157,0.1157,0.1158,0.078,0.0822,0.094,0.1064,0.125,0.1429,0.159,0.1539,0.1246,0.1163,0.1035,0.0938,0.0841,0.0824,0.0761,0.0736,0.0723,0,0]}],[{"header":{"parameterUnit":"m.s-1","parameterCategory":2,"la1":30.2992,"la2":30.254,"lo1":-89.0895,"lo2":-89.0443,"dy":0.0025,"dx":0.0025,"nx":19,"ny":19,"refTime":"2026-04-08T09:00:00:Z","depth":"4","parameterNumber":2,"parameterNumberName":"U-component_of_CURRENTS"},"data":[0,0,0,0.2001,0.2006,0.2226,0.2226,0.2365,0.2365,0,0,0,0,0,0,0,0,0,0,0,0.1932,0.1934,0.2,0.2006,0.2226,0.2227,0.2364,0.2365,0,0,0,0,0,0,0,0,0,0,0,0.1931,0.1934,0.1936,0.2007,0.2226,0.2227,0.2364,0.2232,0,0,0,0,0,0,0,0,0,0,0.2035,0.2001,0.1933,0.1936,0.2009,0.2225,0.2227,0.2227,0.224,0.2227,0,0.2284,0,0.2327,0.2372,0.2373,0,0,0,0.1998,0.199,0.2046,0.1937,0.2011,0.2225,0.2124,0.2235,0.225,0.2243,0.2287,0.2293,0.2329,0.2373,0.2373,0.2483,0.2483,0,0,0.1986,0.1969,0.2036,0.2056,0.2096,0.2117,0.2131,0.2246,0.2271,0.2287,0.2297,0.2332,0.2374,0.2374,0.2483,0.2483,0,0,0,0.1957,0.196,0.2016,0.2049,0.2101,0.2124,0.214,0.2267,0.2286,0.2299,0.2333,0.2374,0.2375,0.2482,0.2483,0.2528,0,0,0,0.1949,0.1944,0.2011,0.2002,0.21,0.2207,0.2158,0.2278,0.2293,0.2333,0.2374,0.2376,0.2482,0.2482,0.2526,0.2557,0,0,0,0.1917,0.194,0.1974,0.2001,0.2099,0.2207,0.2234,0.2283,0.2313,0.2373,0.2377,0.2481,0.2482,0.2524,0.2553,0.2605,0,0,0,0.1878,0.1923,0.1974,0.2035,0.2097,0.2199,0.2234,0.2322,0.2375,0.2375,0.2482,0.2483,0.2523,0.2551,0.2603,0.229,0,0,0,0.1895,0.1925,0.1955,0.2005,0.2093,0.2166,0.2263,0.2353,0.2382,0.2431,0.2435,0.2526,0.2553,0.2605,0.2355,0,0,0,0,0.1932,0.1965,0.1998,0.2075,0.2152,0.2253,0.2341,0.2388,0.2483,0.2424,0.2535,0.2551,0.2582,0.2391,0.2488,0.2488,0.2488,0.2487,0.2487,0.1924,0.197,0.2027,0.2106,0.2184,0.2319,0.2401,0.2484,0.2499,0.2555,0.2594,0.2674,0.2472,0.2594,0.2594,0.2594,0.2594,0.2595,0.2595,0.1925,0.1944,0.2043,0.2116,0.2231,0.2331,0.2485,0.254,0.2664,0.2648,0.2676,0.2459,0.2599,0.2598,0.2598,0.2597,0.2597,0.2597,0.2596,0.1879,0.1893,0.1968,0.2086,0.2221,0.2365,0.249,0.2624,0.2713,0.2764,0.2574,0.2718,0.2709,0.2788,0.2789,0.2789,0.279,0.279,0.279,0.1783,0.1856,0.1916,0.2058,0.2141,0.2297,0.2518,0.2591,0.272,0.2607,0.2795,0.2739,0.2733,0.2721,0.2796,0.2795,0.2794,0.2794,0.2793,0.17,0.1757,0.1824,0.1902,0.2067,0.2147,0.2393,0.2465,0.2524,0.2498,0.2516,0.2528,0.2489,0.249,0.2467,0.247,0.2466,0.2463,0,0.1631,0.1666,0.1734,0.1803,0.1875,0.2044,0.2047,0.2171,0.2292,0.2215,0.2533,0.255,0.2557,0.251,0.2505,0.2475,0,0,0,0.1577,0.1612,0.1618,0.1706,0.1761,0.1856,0.2033,0.2002,0.2272,0.2239,0.2369,0.2394,0.2632,0.2813,0.2784,0.2777,0.2756,0,0]},{"header":{"parameterUnit":"m.s-1","parameterCategory":2,"la1":30.2992,"la2":30.254,"lo1":-89.0895,"lo2":-89.0443,"dy":0.0025,"dx":0.0025,"nx":19,"ny":19,"refTime":"2026-04-08T09:00:00:Z","depth":"4","parameterNumber":3,"parameterNumberName":"V-component_of_CURRENTS"},"data":[0,0,0,0.0261,0.026,0.0203,0.0202,0.0108,0.0107,0,0,0,0,0,0,0,0,0,0,0,0.0283,0.0283,0.0261,0.026,0.0203,0.0202,0.0108,0.0107,0,0,0,0,0,0,0,0,0,0,0,0.0283,0.0283,0.0283,0.026,0.0203,0.0202,0.0108,0.0155,0,0,0,0,0,0,0,0,0,0,0.0212,0.0243,0.0283,0.0283,0.026,0.0203,0.0202,0.0157,0.0152,0.0131,0,0.013,0,0.0119,0.0101,0.0101,0,0,0,0.0251,0.0248,0.0229,0.0283,0.0259,0.0203,0.0226,0.0154,0.0148,0.0124,0.0129,0.0125,0.0117,0.0101,0.01,0.0071,0.0071,0,0,0.0254,0.0272,0.0234,0.0226,0.0254,0.0228,0.0224,0.0151,0.015,0.0128,0.0123,0.0116,0.01,0.01,0.0071,0.0071,0,0,0,0.027,0.0274,0.0258,0.023,0.0222,0.0226,0.0222,0.0153,0.0147,0.0122,0.0114,0.01,0.0099,0.007,0.0071,0.0163,0,0,0,0.0271,0.0284,0.026,0.0269,0.0224,0.0191,0.0226,0.0152,0.0144,0.0115,0.01,0.0098,0.007,0.0071,0.0159,0.0215,0,0,0,0.0284,0.0285,0.0281,0.027,0.0249,0.0192,0.0181,0.015,0.0139,0.0101,0.0098,0.007,0.0071,0.0156,0.0209,0.0235,0,0,0,0.03,0.0302,0.0281,0.0285,0.025,0.0235,0.0182,0.016,0.0133,0.0099,0.007,0.0071,0.0155,0.0206,0.0231,0.0255,0,0,0,0.0311,0.0304,0.0307,0.0287,0.0299,0.0242,0.0253,0.0192,0.0138,0.009,0.0089,0.016,0.0209,0.0234,0.0302,0,0,0,0,0.0316,0.0325,0.0323,0.0326,0.0304,0.0307,0.0244,0.0217,0.0179,0.0126,0.0151,0.0179,0.0192,0.0195,0.0075,0.0075,0.0075,0.0075,0.0074,0.0355,0.0353,0.0378,0.0378,0.037,0.0347,0.0338,0.029,0.0226,0.0225,0.0246,0.0321,0.0328,0.0228,0.0228,0.0229,0.0229,0.0229,0.0229,0.0399,0.0421,0.0432,0.0455,0.0459,0.0466,0.043,0.0397,0.0376,0.0316,0.0323,0.0283,0.0238,0.0236,0.0235,0.0234,0.0233,0.0233,0.0232,0.0432,0.0447,0.0467,0.0521,0.057,0.0562,0.0615,0.0566,0.0473,0.0486,0.046,0.038,0.0379,0.0481,0.0481,0.0482,0.0482,0.0482,0.0482,0.0459,0.0484,0.0541,0.0597,0.0654,0.0722,0.0731,0.0715,0.063,0.0578,0.0514,0.0405,0.0397,0.0393,0.0488,0.0487,0.0486,0.0486,0.0485,0.0495,0.0515,0.0604,0.0667,0.0804,0.0856,0.0872,0.0821,0.08,0.0739,0.0606,0.0599,0.0566,0.0553,0.0553,0.07,0.07,0.0701,0,0.0525,0.0537,0.0669,0.0782,0.09,0.0938,0.0952,0.0922,0.0795,0.078,0.0769,0.0622,0.0615,0.0577,0.0567,0.0567,0,0,0,0.0559,0.0597,0.0694,0.0806,0.0939,0.0958,0.0958,0.0926,0.0822,0.0804,0.0718,0.0714,0.0622,0.0505,0.0435,0.0425,0.0414,0,0]}]]